Regional Weather Roundup
Issued by NWS

Home | Current Version | Previous Version | Graphics & Text | Print | Product List | Glossary On
Versions: 1 2 3 4 5 6 7 8 9 10 11 12 13 14 15 16 17 18 19 20 21 22 23 24 25 26 27 28 29 30 31 32 33 34 35 36 37 38 39 40 41 42 43 44 45 46 47 48 49 50
525
ASUS43 KMKX 271700
RWRWI

WISCONSIN REGIONAL WEATHER ROUNDUP
NATIONAL WEATHER SERVICE MILWAUKEE/SULLIVAN WI
1100 AM CST MON FEB 27 2017

NOTE: "FAIR" INDICATES FEW OR NO CLOUDS BELOW 12,000 FEET WITH NO
SIGNIFICANT WEATHER AND/OR OBSTRUCTIONS TO VISIBILITY.

WIZ001-002-006>008-014>016-023>028-271800-
NORTHWEST WISCONSIN

CITY           SKY/WX    TMP DP  RH WIND       PRES   REMARKS
SUPERIOR ARPT  CLOUDY    26  17  70 CALM      30.00R
ASHLAND        CLOUDY    27  21  78 CALM      30.00S
HAYWARD        CLOUDY    29  21  72 S5        29.97S WCI  24
SIREN          CLOUDY    33  23  67 SW9       29.97S WCI  25
CUMBERLAND     CLOUDY    34  21  60 SW15      29.97S WCI  24
RICE LAKE      CLOUDY    34  22  61 S9        30.00F WCI  26
CHETEK         CLOUDY    34  21  57 S8        30.00S WCI  28
LADYSMITH      SUNNY     34  22  59 S13       30.01S WCI  25
EAU CLAIRE     NOT AVBL
MENOMONIE      CLOUDY    32  21  64 SE7       30.03S WCI  26
NEW RICHMOND   SUNNY     37  19  48 S15       29.99R WCI  28
OSCEOLA        SUNNY     37  22  55 S6        30.01S WCI  32
$$

WIZ003>005-009-010-017-018-271800-
NORTH CENTRAL WISCONSIN

CITY           SKY/WX    TMP DP  RH WIND       PRES   REMARKS
MANITOWISH WTR CLOUDY    28  21  74 S12       29.96F WCI  18
ARBOR VITAE    PTSUNNY   32  23  70 S12         N/A  WCI  23
WOODRUFF       PTSUNNY   32  23  70 S12         N/A  WCI  23
RHINELANDER    CLOUDY    35  20  54 S15G24    30.00S WCI  25
EAGLE RIVER    SUNNY     28  17  62 S6        29.99S WCI  22
LAND O LAKES   CLOUDY    30  19  64 S10       30.00S WCI  21
PHILLIPS       CLOUDY    33  21  62 S15       29.97F WCI  23
TOMAHAWK       SUNNY     35  20  55 S6        30.01S WCI  30
MEDFORD        SUNNY     30  20  66 S9        30.02R WCI  22
MERRILL        NOT AVBL
$$

WIZ029-030-035-036-043>047-271800-
CENTRAL WISCONSIN

CITY           SKY/WX    TMP DP  RH WIND       PRES   REMARKS
WAUSAU         SUNNY     34  20  56 S12       30.04S WCI  25
MOSINEE        MOSUNNY   36  21  55 S12G17    30.06S WCI  27
MARSHFIELD     SUNNY     35  20  54 S13       30.04R WCI  26
STEVENS POINT  SUNNY     33  20  60 S12       30.08R WCI  24
WAUPACA        SUNNY     40  23  51 SE7       30.10F WCI  35
WAUTOMA        SUNNY     38  21  50 S8        30.11R WCI  32
WISC RAPIDS    SUNNY     37  21  52 SW9       30.08S WCI  30
CAMP DOUGLAS   NOT AVBL
$$

WIZ011>013-019>022-031-037>040-048>050-271800-
NORTHEAST WISCONSIN

CITY           SKY/WX    TMP DP  RH WIND       PRES   REMARKS
ANTIGO         SUNNY     31  21  66 S9        30.05S WCI  23
SHAWANO        SUNNY     38  22  52 S7        30.11R WCI  33
OCONTO         SUNNY     33  22  66 S10G17    30.12S WCI  24
STURGEON BAY   SUNNY     35  24  64 S17       30.12F WCI  25
GREEN BAY      SUNNY     35  25  66 S9        30.12S WCI  28
MANITOWOC      NOT AVBL
APPLETON       MOSUNNY   36  21  55 SE9       30.10R WCI  29
CLINTONVILLE   SUNNY     34  23  64 S9        30.10S WCI  26
OSHKOSH        SUNNY     35  23  61 S12       30.11S WCI  27
$$

WIZ032>034-041-042-053>061-271800-
SOUTHWEST WISCONSIN

CITY           SKY/WX    TMP DP  RH WIND       PRES   REMARKS
LA CROSSE      SUNNY     38  25  59 S12       30.07F WCI  30
SPARTA         SUNNY     38  23  55 SW8       30.08S WCI  32
VIROQUA        SUNNY     35  25  67 S9        30.06S WCI  28
BOSCOBEL       MOSUNNY   41  28  60 VRB7      30.10S
PRAIRIE DU CHI SUNNY     38  28  67 CALM      30.09S
PLATTEVILLE    PTSUNNY   36  33  86 S8        30.10R WCI  30
$$

WIZ056-057-062-063-064-067-068-271800-
SOUTH CENTRAL WISCONSIN

CITY           SKY/WX    TMP DP  RH WIND       PRES   REMARKS
REEDSBURG      MOSUNNY   37  25  61 S13       30.09S WCI  29
BARABOO/DELLS  SUNNY     37  23  57 S12       30.09R WCI  29
LONE ROCK      NOT AVBL
MINERAL POINT  PTSUNNY   37  32  81 S10       30.09R WCI  30
MADISON        PTSUNNY   39  26  59 S10       30.11R WCI  32
MIDDLETON      PTSUNNY   41  28  60 S12       30.10S
WATERTOWN      SUNNY     39  26  59 SE10      30.11S WCI  33
MONROE         PTSUNNY   36  32  87 S9        30.10R WCI  29
JANESVILLE     MOSUNNY   45  30  57 S9        30.12R
$$

WIZ051-052-058>065-066-070>072-271800-
SOUTHEAST WISCONSIN

CITY           SKY/WX    TMP DP  RH WIND       PRES   REMARKS
MILWAUKEE      MOSUNNY   42  30  62 SE14      30.15F
WAUKESHA       SUNNY     39  25  56 SE10G17   30.14F WCI  32
MILWAUKEE/TIMM SUNNY     41  23  48 SE12      30.14F
RACINE         CLOUDY    39  29  67 S12       30.16F WCI  32
KENOSHA        PTSUNNY   41  30  65 SE9       30.14F
FOND DU LAC    SUNNY     37  23  56 S12       30.11F WCI  29
SHEBOYGAN      SUNNY     36  27  69 S10       30.14S WCI  28
WEST BEND      SUNNY     37  25  60 S8        30.13S WCI  31
JUNEAU         SUNNY     37  25  60 SE13      30.12S WCI  29
$$

LSZ147-162-271800-
LAKE SUPERIOR

STATION/POSITION TIME  TEMP    WIND        PRES    WAVE
                       AIR SEA DIR/SP/G            HT/PER
                 (UTC) (F)     (DEG/KT/KT) (MB)    (FT/S)
DEVILS ISLAND    1600   24     220/  3/  4 1017.4R
PORT WING        1630   25     350/  5/  5 1015.9F
SAXON HARBOR     1630   29      CALM  /  2 1015.6F
$$

LMZ867-665-643>646-271800-
LAKE MICHIGAN

STATION/POSITION TIME  TEMP    WIND        PRES    WAVE
                       AIR SEA DIR/SP/G            HT/PER
                 (UTC) (F)     (DEG/KT/KT) (MB)    (FT/S)
CHAMBERS ISLAND  1640   36     160/  5/ 15 1019.6F
NORTHPORT PIER   1640   33     150/ 12/ 17 1020.3F
SISTER BAY       1520          190/ 11/ 15   N/A
KEWAUNEE LAKESHO 1630   33     180/ 14/ 16 1020.4R
SHEBOYGAN LAKESH 1600   34     170/ 14/ 15 1021.5R
PORT WASHINGTON  1640   38     170/  9/ 12 1022.0S
MILWAUKEE LAKESH 1630   36     150/  9/ 10   N/A
KENOSHA   LAKESH 1600   35     160/  7/  7 1021.3
$$

TC  - TEMPERATURE IN CELSIUS
VSB - VISIBILITY IN STATUTE MILES
WCI - WIND CHILL INDEX
HX  - HEAT INDEX





USA.gov is the U.S. government's official web portal to all federal, state and local government web resources and services.